This is the latest recevied weather packets stored in our database for station/object KE8GJZ-2. If no packets are shown the sender has not sent any weather packets the latest 10 day(s).
| Time | Temp. | Humidity | Pressure | Rain* | Wind** | Luminosity | Snow |
|---|---|---|---|---|---|---|---|
| 1778166248 | 8.89° C | 56% | 1014.7 hPa | 0 mm | - | 727 W/m² | - |
| 1778165945 | 8.89° C | 57% | 1014.8 hPa | 0 mm | - | 732 W/m² | - |
| 1778165641 | 8.89° C | 59% | 1014.6 hPa | 0 mm | - | 661 W/m² | - |
| 1778165338 | 8.89° C | 57% | 1014.9 hPa | 0 mm | - | 720 W/m² | - |
| 1778165035 | 8.89° C | 54% | 1015 hPa | 0 mm | - | 671 W/m² | - |
| 1778164732 | 9.44° C | 56% | 1015.1 hPa | 0 mm | - | 681 W/m² | - |
| 1778164429 | 8.89° C | 55% | 1014.9 hPa | 0 mm | - | 685 W/m² | - |
| 1778164125 | 8.89° C | 57% | 1014.9 hPa | 0 mm | - | 684 W/m² | - |
| 1778163822 | 8.89° C | 55% | 1015.1 hPa | 0 mm | - | 672 W/m² | - |
| 1778163518 | 8.89° C | 56% | 1014.9 hPa | 0 mm | - | 655 W/m² | - |
| 1778163215 | 8.33° C | 55% | 1015.1 hPa | 0 mm | - | 638 W/m² | - |
| 1778162911 | 8.89° C | 55% | 1014.8 hPa | 0 mm | - | 594 W/m² | - |
| 1778162608 | 8.33° C | 57% | 1015.1 hPa | 0 mm | - | 570 W/m² | - |
| 1778162306 | 8.89° C | 56% | 1015.2 hPa | 0 mm | - | 532 W/m² | - |
| 1778162003 | 8.89° C | 56% | 1015.1 hPa | 0 mm | - | 514 W/m² | - |
| 1778161700 | 8.89° C | 60% | 1015.3 hPa | 0 mm | - | 490 W/m² | - |
| 1778161396 | 8.89° C | 56% | 1015.3 hPa | 0 mm | - | 471 W/m² | - |
| 1778161092 | 8.89° C | 58% | 1015 hPa | 0 mm | - | 455 W/m² | - |
| 1778160788 | 8.89° C | 59% | 1015 hPa | 0 mm | - | 447 W/m² | - |
| 1778160486 | 8.33° C | 60% | 1015.1 hPa | 0 mm | - | 422 W/m² | - |
| 1778160183 | 8.33° C | 63% | 1015 hPa | 0 mm | - | 326 W/m² | - |
| 1778159880 | 7.78° C | 68% | 1015.2 hPa | 0 mm | - | 374 W/m² | - |
| 1778159577 | 7.78° C | 69% | 1015.1 hPa | 0 mm | - | 351 W/m² | - |
| 1778159273 | 7.78° C | 69% | 1015.1 hPa | 0 mm | - | 329 W/m² | - |
| 1778158971 | 7.78° C | 66% | 1015.1 hPa | 0 mm | - | 326 W/m² | - |
* Rain latest hour (hover to see other rain measurements)
** Current wind speed in m/s (hover to see current wind gust speed)